When you browse on this site, cookies collect data to enhance your experience and personalize the content and advertising you see.
Visit our Privacy Policy to learn more. By continuing to use the site, you agree to this use of cookies and data.
  • In Latvia
  • List of Countries
  • For 7 days
  • Water Temperature
  • Weather Map
  • Weather Widgets
  • user-avatar
    Login

    Hourly Weather Jewłach

    Today, 1 June, Monday

    Time Temperature Precipitation Wind Pressure Humidity
    00:00 +22°C° 0 mm 4 mps 759 mmHg 55%
    01:00 +21°C° 0 mm 3 mps 759 mmHg 56%
    02:00 +21°C° 0 mm 3 mps 759 mmHg 57%
    03:00 +20°C° 0 mm 3 mps 759 mmHg 59%
    04:00 +21°C° 0 mm 3 mps 759 mmHg 57%
    05:00 +21°C° 0 mm 3 mps 759 mmHg 55%
    06:00 +22°C° 0 mm 3 mps 759 mmHg 53%
    07:00 +24°C° 0 mm 3 mps 758 mmHg 48%
    08:00 +26°C° 0 mm 3 mps 758 mmHg 42%
    09:00 +28°C° 0 mm 3 mps 758 mmHg 37%
    10:00 +29°C° 0 mm 3 mps 757 mmHg 35%
    11:00 +31°C° 0 mm 3 mps 757 mmHg 33%
    12:00 +33°C° 0 mm 3 mps 757 mmHg 31%
    13:00 +34°C° 0 mm 3 mps 756 mmHg 30%
    14:00 +34°C° 0 mm 2 mps 755 mmHg 29%
    15:00 +35°C° 0 mm 2 mps 755 mmHg 28%
    16:00 +35°C° 0 mm 2 mps 755 mmHg 28%
    17:00 +35°C° 0 mm 2 mps 755 mmHg 29%
    18:00 +34°C° 0 mm 2 mps 754 mmHg 29%
    19:00 +31°C° 0 mm 2 mps 755 mmHg 34%
    20:00 +29°C° 0 mm 2 mps 755 mmHg 39%
    21:00 +27°C° 0 mm 2 mps 755 mmHg 45%
    22:00 +26°C° 0 mm 3 mps 755 mmHg 47%
    23:00 +25°C° 0 mm 3 mps 755 mmHg 49%

    Tomorrow, 2 June, Tuesday

    Time Temperature Precipitation Wind Pressure Humidity
    00:00 +22°C° 0 mm 3 mps 755 mmHg 51%
    01:00 +23°C° 0 mm 2 mps 755 mmHg 53%
    02:00 +21°C° 0 mm 2 mps 755 mmHg 55%
    03:00 +22°C° 0 mm 1 mps 754 mmHg 57%
    04:00 +22°C° 0 mm 1 mps 754 mmHg 55%
    05:00 +23°C° 0 mm 1 mps 754 mmHg 54%
    06:00 +22°C° 0 mm 0 mps 754 mmHg 52%
    07:00 +26°C° 0 mm 1 mps 754 mmHg 47%
    08:00 +28°C° 0 mm 1 mps 754 mmHg 42%
    09:00 +30°C° 0 mm 1 mps 754 mmHg 37%
    10:00 +32°C° 0 mm 1 mps 753 mmHg 34%
    11:00 +34°C° 0 mm 1 mps 753 mmHg 31%
    12:00 +35°C° 0 mm 1 mps 753 mmHg 28%
    13:00 +37°C° 0 mm 2 mps 752 mmHg 26%
    14:00 +38°C° 0 mm 2 mps 752 mmHg 24%
    15:00 +39°C° 0 mm 3 mps 751 mmHg 22%
    16:00 +35°C° 0.3 mm 5 mps 752 mmHg 33%
    17:00 +30°C° 0.3 mm 7 mps 752 mmHg 45%
    18:00 +27°C° 0.3 mm 9 mps 753 mmHg 57%
    19:00 +26°C° 0.3 mm 7 mps 753 mmHg 59%
    20:00 +26°C° 0.3 mm 5 mps 753 mmHg 61%
    21:00 +25°C° 0.3 mm 2 mps 753 mmHg 63%
    22:00 +25°C° 0 mm 2 mps 753 mmHg 63%
    23:00 +25°C° 0 mm 2 mps 752 mmHg 63%

    Day after tomorrow, 3 June, Wednesday

    Time Temperature Precipitation Wind Pressure Humidity
    00:00 +24°C° 0 mm 2 mps 752 mmHg 63%
    01:00 +24°C° 0 mm 3 mps 752 mmHg 64%
    02:00 +24°C° 0 mm 3 mps 752 mmHg 66%
    03:00 +22°C° 0 mm 3 mps 752 mmHg 67%
    04:00 +23°C° 0 mm 4 mps 752 mmHg 64%
    05:00 +23°C° 0 mm 5 mps 752 mmHg 61%
    06:00 +24°C° 0 mm 6 mps 752 mmHg 58%
    07:00 +27°C° 0 mm 6 mps 752 mmHg 51%
    08:00 +29°C° 0 mm 6 mps 752 mmHg 44%
    09:00 +32°C° 0 mm 5 mps 751 mmHg 37%
    10:00 +34°C° 0 mm 6 mps 751 mmHg 33%
    11:00 +36°C° 0 mm 6 mps 751 mmHg 29%
    12:00 +39°C° 0 mm 6 mps 751 mmHg 25%
    13:00 +40°C° 0 mm 5 mps 751 mmHg 22%
    14:00 +40°C° 0 mm 5 mps 751 mmHg 20%
    15:00 +41°C° 0 mm 4 mps 750 mmHg 17%
    16:00 +38°C° 0 mm 4 mps 751 mmHg 20%
    17:00 +37°C° 0 mm 4 mps 751 mmHg 24%
    18:00 +35°C° 0 mm 3 mps 751 mmHg 27%
    19:00 +33°C° 0 mm 3 mps 752 mmHg 31%
    20:00 +31°C° 0 mm 3 mps 752 mmHg 35%
    21:00 +29°C° 0 mm 2 mps 753 mmHg 39%
    22:00 +28°C° 0 mm 3 mps 753 mmHg 44%
    23:00 +26°C° 0 mm 4 mps 754 mmHg 50%

    4 June, Thursday

    Time Temperature Precipitation Wind Pressure Humidity
    00:00 +25°C° 0 mm 5 mps 754 mmHg 55%
    01:00 +23°C° 0 mm 5 mps 755 mmHg 58%
    02:00 +23°C° 0 mm 6 mps 755 mmHg 60%
    03:00 +22°C° 0 mm 6 mps 755 mmHg 63%
    04:00 +22°C° 0 mm 6 mps 756 mmHg 60%
    05:00 +23°C° 0 mm 6 mps 756 mmHg 57%
    06:00 +23°C° 0 mm 5 mps 756 mmHg 54%
    07:00 +26°C° 0 mm 5 mps 756 mmHg 49%
    08:00 +28°C° 0 mm 4 mps 756 mmHg 43%
    09:00 +30°C° 0 mm 4 mps 756 mmHg 37%
    10:00 +33°C° 0 mm 3 mps 756 mmHg 34%
    11:00 +34°C° 0 mm 2 mps 756 mmHg 31%
    12:00 +35°C° 0 mm 1 mps 756 mmHg 28%
    13:00 +36°C° 0 mm 2 mps 756 mmHg 26%
    14:00 +37°C° 0 mm 4 mps 755 mmHg 25%
    15:00 +39°C° 0 mm 5 mps 755 mmHg 24%
    16:00 +38°C° 0 mm 6 mps 755 mmHg 30%
    17:00 +35°C° 0 mm 7 mps 756 mmHg 35%
    18:00 +33°C° 0 mm 9 mps 756 mmHg 41%
    19:00 +31°C° 0 mm 8 mps 756 mmHg 47%
    20:00 +28°C° 0 mm 7 mps 757 mmHg 52%
    21:00 +26°C° 0 mm 6 mps 757 mmHg 58%
    22:00 +25°C° 0 mm 5 mps 757 mmHg 62%
    23:00 +25°C° 0 mm 4 mps 758 mmHg 66%

    5 June, Friday

    Time Temperature Precipitation Wind Pressure Humidity
    00:00 +24°C° 0 mm 2 mps 758 mmHg 70%
    01:00 +23°C° 0 mm 2 mps 758 mmHg 70%
    02:00 +23°C° 0 mm 2 mps 758 mmHg 71%
    03:00 +23°C° 0 mm 2 mps 758 mmHg 72%
    04:00 +22°C° 0 mm 4 mps 758 mmHg 69%
    05:00 +23°C° 0 mm 6 mps 759 mmHg 66%
    06:00 +24°C° 0 mm 8 mps 759 mmHg 64%
    07:00 +26°C° 0 mm 8 mps 759 mmHg 57%
    08:00 +28°C° 0 mm 8 mps 759 mmHg 50%
    09:00 +31°C° 0 mm 8 mps 759 mmHg 43%
    10:00 +32°C° 0 mm 8 mps 759 mmHg 37%
    11:00 +34°C° 0 mm 7 mps 759 mmHg 31%
    12:00 +36°C° 0 mm 7 mps 759 mmHg 25%
    13:00 +38°C° 0 mm 7 mps 758 mmHg 23%
    14:00 +39°C° 0 mm 6 mps 758 mmHg 21%
    15:00 +39°C° 0 mm 6 mps 758 mmHg 19%
    16:00 +37°C° 0 mm 5 mps 758 mmHg 20%
    17:00 +37°C° 0 mm 5 mps 759 mmHg 21%
    18:00 +36°C° 0 mm 4 mps 759 mmHg 22%
    19:00 +33°C° 0 mm 5 mps 760 mmHg 31%
    20:00 +29°C° 0 mm 6 mps 761 mmHg 41%
    21:00 +26°C° 0 mm 7 mps 761 mmHg 51%
    22:00 +25°C° 0 mm 5 mps 762 mmHg 54%
    23:00 +23°C° 0 mm 4 mps 762 mmHg 57%

    6 June, Saturday

    Time Temperature Precipitation Wind Pressure Humidity
    00:00 +22°C° 0 mm 3 mps 762 mmHg 60%
    01:00 +23°C° 0 mm 2 mps 762 mmHg 62%
    02:00 +21°C° 0 mm 2 mps 762 mmHg 65%
    03:00 +21°C° 0 mm 2 mps 762 mmHg 67%
    04:00 +23°C° 0 mm 2 mps 762 mmHg 65%
    05:00 +23°C° 0 mm 2 mps 763 mmHg 62%
    06:00 +24°C° 0 mm 2 mps 763 mmHg 60%
    07:00 +26°C° 0 mm 2 mps 762 mmHg 55%
    08:00 +27°C° 0 mm 3 mps 762 mmHg 49%
    09:00 +29°C° 0 mm 4 mps 762 mmHg 44%
    10:00 +30°C° 0 mm 4 mps 762 mmHg 41%
    11:00 +32°C° 0 mm 4 mps 762 mmHg 38%
    12:00 +34°C° 0 mm 4 mps 761 mmHg 35%
    13:00 +34°C° 0 mm 3 mps 761 mmHg 34%
    14:00 +35°C° 0 mm 3 mps 761 mmHg 32%
    15:00 +35°C° 0 mm 3 mps 760 mmHg 31%
    16:00 +35°C° 0 mm 3 mps 760 mmHg 31%
    17:00 +35°C° 0 mm 3 mps 760 mmHg 32%
    18:00 +34°C° 0 mm 3 mps 760 mmHg 33%
    19:00 +32°C° 0.1 mm 4 mps 761 mmHg 38%
    20:00 +29°C° 0.1 mm 4 mps 761 mmHg 43%
    21:00 +27°C° 0.1 mm 5 mps 762 mmHg 48%
    22:00 +26°C° 0 mm 4 mps 762 mmHg 51%
    23:00 +25°C° 0 mm 4 mps 762 mmHg 54%
    Show more